Regional Weather Roundup
Issued by NWS

Home | Current Version | Previous Version | Graphics & Text | Print | Product List | Glossary On
Versions: 1 2 3 4 5 6 7 8 9 10 11 12 13 14 15 16 17 18 19 20 21 22 23 24 25 26 27 28 29 30 31 32 33 34 35 36 37 38 39 40 41 42 43 44 45 46 47 48 49 50
000
ASUS43 KOAX 021710
RWRNE

WEATHER ROUNDUP FOR NEBRASKA
NATIONAL WEATHER SERVICE OMAHA NE
1200 PM CDT MON MAY 02 2016

NOTES: SATELLITE DATA IS BEING USED TO AUGMENT CLOUD COVER ABOVE
       12000 FEET.
       "FAIR" INDICATES FEW OR NO CLOUDS BELOW 12,000 FEET WITH NO
       SIGNIFICANT WEATHER AND/OR OBSTRUCTIONS TO VISIBILITY.

  * THESE STATIONS DO NOT REPORT WEATHER SUCH AS RAIN...SNOW OR FOG.

NEZ001>004-019>022-054>056-021800-
NEBRASKA PANHANDLE

CITY           SKY/WX    TMP DP  RH WIND       PRES   REMARKS
SCOTTSBLUFF    SUNNY     55  35  47 W12       30.19F
ALLIANCE       SUNNY     51  38  60 MISG      30.16F
CHADRON        SUNNY     58  34  40 NW17      30.14F
KIMBALL        SUNNY     48  30  49 W7        30.21F
SIDNEY         SUNNY     51  32  48 NW10      30.21S
$$

NEZ057>060-069>072-079>082-021800-
SOUTHWEST NEBRASKA

CITY           SKY/WX    TMP DP  RH WIND       PRES   REMARKS
NORTH PLATTE   SUNNY     56  36  47 W8        30.16F
IMPERIAL       SUNNY     55  34  45 N10G21    30.19F
LEXINGTON      SUNNY     55  35  47 CALM      30.17F
MCCOOK         SUNNY     57  38  48 VRB6      30.17F
OGALLALA       SUNNY     56  34  43 NW10      30.18S
$$

NEZ005>010-023>029-035>040-094-021800-
NORTH CENTRAL NEBRASKA

CITY           SKY/WX    TMP DP  RH WIND       PRES   REMARKS
VALENTINE      CLOUDY    56  33  42 NW7       30.12F
AINSWORTH      PTSUNNY   57  33  41 W7        30.13F
BROKEN BOW     SUNNY     54  36  50 SW6       30.15F
O`NEILL        PTSUNNY   57  33  39 W7        30.14S
ORD            SUNNY     57  35  43 N8        30.14F
THEDFORD       SUNNY     58  33  40 NW5       30.15F
$$

NEZ041-046>049-061>064-073>077-083>087-021800-
SOUTH CENTRAL NEBRASKA

CITY           SKY/WX    TMP DP  RH WIND       PRES   REMARKS
GRAND ISLAND   PTSUNNY   57  36  45 NW10      30.16F
AURORA         MOSUNNY   57  39  51 NW9       30.15F
HASTINGS       SUNNY     56  36  47 VRB6G16   30.15F
HEBRON         PTSUNNY   58  39  49 NE6       30.15S
HOLDREGE       SUNNY     54  35  48 NW7       30.16F
KEARNEY *      MOSUNNY   54  34  47 NW3       30.17F
YORK           MOSUNNY   57  39  51 N10       30.15S
$$

NEZ011>018-030>034-042>045-021800-
NORTHEAST NEBRASKA

CITY           SKY/WX    TMP DP  RH WIND       PRES   REMARKS
NORFOLK        MOSUNNY   56  34  43 NW7       30.13F
ALBION         SUNNY     57  36  44 W5        30.13F
BLAIR          SUNNY     58  40  50 N7        30.13S
COLUMBUS *     SUNNY     57  36  44 NE6       30.15S
FREMONT        SUNNY     59  37  43 N6        30.14S
TEKAMAH        SUNNY     60  39  45 N6        30.13S
WAYNE          MOSUNNY   59  36  41 N6        30.13F
$$

NEZ050>053-065>068-078-088>093-021800-
SOUTHEAST NEBRASKA

CITY           SKY/WX    TMP DP  RH WIND       PRES   REMARKS
LINCOLN        MOSUNNY   60  38  43 N5        30.15S
OMAHA EPPLEY   MOSUNNY   60  43  53 VRB3      30.13S
BEATRICE       MOSUNNY   58  41  52 N10       30.14S
FALLS CITY     CLOUDY    56  46  69 VRB7      30.13R
NEBRASKA CITY  PTSUNNY   59  45  59 NE7       30.13S
PLATTSMOUTH    SUNNY     58  43  56 N8        30.13S
$$

NEZ044-045-051>053-067-021800-
OMAHA AREA

CITY           SKY/WX    TMP DP  RH WIND       PRES   REMARKS
OMAHA EPPLEY   MOSUNNY   60  43  53 VRB3      30.13S
BLAIR          SUNNY     58  40  50 N7        30.13S
FREMONT        SUNNY     59  37  43 N6        30.14S
MILLARD        SUNNY     60  39  47 NE7       30.12F
OFFUTT AFB     SUNNY     60  42  52 N7        30.12F
PLATTSMOUTH    SUNNY     58  43  56 N8        30.13S
WAHOO          FAIR      59  40  48 N3        30.13F
$$



USA.gov is the U.S. government's official web portal to all federal, state and local government web resources and services.